Location: Mahannah Oil Field
(37.4664°N, 96.6003°W)
Time: 06:50:18
(UTC+00:00)

Tiros 1 despin weight - Pass Details

Date: 28 January 2021
Orbit: 593 x 642 km, 48.2° (Epoch: 06 March)

Event Time Altitude Azimuth Distance (km) Brightness Sun altitude
Rises 01:54:04 0° 299° (WNW) 2,848 ? -25.6°
Reaches altitude 10° 01:56:26 10° 293° (WNW) 1,936 ? -26.0°
Maximum altitude 02:00:40 45° 221° (SW) 811 ? -26.9°
Enters shadow 02:00:45 45° 217° (SW) 811 ? -26.9°
